Glenwood, MN

9:49 AM CST on January 24, 2017 (GMT -0600)
Glenwood Municipal

Weather History for KGHW - October, 2012

Change the Weather History Date:

Saturday, October 20, 2012

  Actual Average Record
Temperature  
Mean Temperature 46 °F -  
Max Temperature 50 °F 56 °F 80 °F (1953)
Min Temperature 41 °F 34 °F 18 °F (1952)
Degree Days  
Heating Degree Days 20    
Moisture  
Dew Point 42 °F    
Average Humidity 92    
Maximum Humidity 100    
Minimum Humidity 76    
Precipitation  
Precipitation 0.00 in - - ()
Sea Level Pressure  
Sea Level Pressure 29.74 in    
Wind  
Wind Speed 5 mph (South)    
Max Wind Speed 15 mph    
Max Gust Speed -    
Visibility 6 miles    
Events Fog    
Averages and records for this station are not official NWS values.
T = Trace of Precipitation, MM = Missing Value Source: NWS Daily Summary

Daily Weather History Graph

Daily Weather History Graph

Search for Another Location

Airport or City:

Trip Planner

Search our weather history database for the weather conditions in past years. The results will help you decide how hot, cold, wet, or windy it might be!

Date:

Astronomy

Oct. 20, 2012 Rise Set
Actual Time 7:45 AM CDT 6:26 PM CDT
Civil Twilight 7:14 AM CDT 6:56 PM CDT
Nautical Twilight 6:40 AM CDT 7:30 PM CDT
Astronomical Twilight 6:05 AM CDT 8:05 PM CDT
Moon 1:30 PM CDT (10/20) 11:05 PM CDT (10/20)
Length of Visible Light 11h 41m
Length of Day
10h 40m
Waxing Crescent, 34% of the Moon is Illuminated
Oct 20
Waxing Crescent
Oct 21
First Quarter
Oct 29
Full
Nov 6
Last Quarter
Nov 13
New

Hourly Weather History & Observations

Time (CDT) Temp. Windchill Dew Point Humidity Pressure Visibility Wind Dir Wind Speed Gust Speed Precip Events Conditions
12:13 AM 42.8 °F 41.1 °F 42.8 °F 100% 29.74 in 10.0 mi West 3.5 mph - N/A   Overcast
12:33 AM 42.8 °F 39.3 °F 42.8 °F 100% 29.74 in 7.0 mi WSW 5.8 mph - N/A   Overcast
12:54 AM 42.8 °F - 42.8 °F 100% 29.74 in 7.0 mi Calm Calm - N/A   Overcast
1:13 AM 42.8 °F - 42.8 °F 100% 29.73 in 2.5 mi Calm Calm - N/A   Overcast
1:33 AM 42.8 °F - 41.0 °F 93% 29.73 in 1.0 mi Calm Calm - N/A   Overcast
1:54 AM 42.8 °F 40.1 °F 42.8 °F 100% 29.74 in 0.5 mi WSW 4.6 mph - N/A Fog Fog
2:13 AM 42.8 °F - 41.0 °F 93% 29.74 in 0.5 mi Calm Calm - N/A Fog Fog
2:33 AM 42.8 °F - 41.0 °F 93% 29.74 in 0.2 mi Calm Calm - N/A Fog Fog
2:54 AM 42.8 °F 40.1 °F 41.0 °F 93% 29.75 in 0.2 mi WSW 4.6 mph - N/A Fog Fog
3:13 AM 42.8 °F 41.1 °F 41.0 °F 93% 29.75 in 0.2 mi WSW 3.5 mph - N/A Fog Fog
3:34 AM 42.8 °F 41.1 °F 41.0 °F 93% 29.74 in 0.2 mi SW 3.5 mph - N/A Fog Fog
3:54 AM 42.8 °F 40.1 °F 41.0 °F 93% 29.74 in 0.2 mi WSW 4.6 mph - N/A   Overcast
4:13 AM 41.0 °F 38.0 °F 41.0 °F 100% 29.74 in 0.2 mi SW 4.6 mph - N/A   Overcast
4:33 AM 41.0 °F 39.0 °F 41.0 °F 100% 29.74 in 0.5 mi WSW 3.5 mph - N/A Fog Fog
4:53 AM 41.0 °F - 41.0 °F 100% 29.74 in 0.2 mi Calm Calm - N/A Fog Fog
5:13 AM 41.0 °F - 41.0 °F 100% 29.74 in 0.5 mi Calm Calm - N/A Fog Fog
5:34 AM 41.0 °F - 41.0 °F 100% 29.74 in 0.5 mi Calm Calm - N/A Fog Fog
5:53 AM 41.0 °F - 41.0 °F 100% 29.75 in 0.5 mi Calm Calm - N/A Fog Fog
6:13 AM 41.0 °F 39.0 °F 41.0 °F 100% 29.75 in 0.2 mi SSW 3.5 mph - N/A Fog Fog
6:34 AM 41.0 °F - 41.0 °F 100% 29.74 in 0.2 mi Calm Calm - N/A Fog Fog
6:53 AM 41.0 °F 39.0 °F 39.2 °F 93% 29.74 in 0.5 mi South 3.5 mph - N/A Fog Fog
7:13 AM 41.0 °F 39.0 °F 39.2 °F 93% 29.75 in 2.0 mi South 3.5 mph - N/A   Overcast
7:34 AM 41.0 °F - 39.2 °F 93% 29.75 in 0.5 mi Calm Calm - N/A Fog Fog
7:53 AM 41.0 °F 39.0 °F 41.0 °F 100% 29.76 in 0.8 mi South 3.5 mph - N/A   Overcast
8:13 AM 41.0 °F 39.0 °F 41.0 °F 100% 29.77 in 0.2 mi SSW 3.5 mph - N/A Fog Fog
8:34 AM 41.0 °F 38.0 °F 41.0 °F 100% 29.77 in 0.2 mi SSW 4.6 mph - N/A Fog Fog
8:53 AM 41.0 °F 37.1 °F 41.0 °F 100% 29.77 in 4.0 mi South 5.8 mph - N/A   Overcast
9:13 AM 41.0 °F 38.0 °F 41.0 °F 100% 29.77 in 5.0 mi South 4.6 mph - N/A   Overcast
9:34 AM 42.8 °F 38.0 °F 41.0 °F 93% 29.78 in 5.0 mi SSW 8.1 mph - N/A   Overcast
9:53 AM 42.8 °F 38.0 °F 41.0 °F 93% 29.77 in 10.0 mi SSW 8.1 mph - N/A   Overcast
10:13 AM 42.8 °F 37.5 °F 42.8 °F 100% 29.77 in 10.0 mi South 9.2 mph - N/A   Overcast
10:34 AM 42.8 °F 37.5 °F 42.8 °F 100% 29.77 in 10.0 mi SSW 9.2 mph - N/A   Overcast
10:53 AM 44.6 °F 40.2 °F 41.0 °F 87% 29.77 in 10.0 mi SSW 8.1 mph - N/A   Overcast
11:13 AM 44.6 °F 39.7 °F 42.8 °F 93% 29.76 in 10.0 mi South 9.2 mph - N/A   Overcast
11:33 AM 46.4 °F 41.9 °F 42.8 °F 87% 29.76 in 10.0 mi South 9.2 mph - N/A   Overcast
11:54 AM 46.4 °F 41.5 °F 42.8 °F 87% 29.76 in 10.0 mi South 10.4 mph - N/A   Scattered Clouds
12:13 PM 48.2 °F - 42.8 °F 82% 29.76 in 10.0 mi South 10.4 mph - N/A   Mostly Cloudy
12:33 PM 50.0 °F - 42.8 °F 76% 29.75 in 10.0 mi South 12.7 mph - N/A   Mostly Cloudy
12:54 PM 48.2 °F - 42.8 °F 82% 29.74 in 10.0 mi South 12.7 mph - N/A   Overcast
1:13 PM 48.2 °F - 42.8 °F 82% 29.74 in 10.0 mi South 11.5 mph - N/A   Overcast
1:33 PM 48.2 °F - 42.8 °F 82% 29.74 in 10.0 mi South 10.4 mph - N/A   Overcast
2:13 PM 48.2 °F - 42.8 °F 82% 29.74 in 10.0 mi South 11.5 mph - N/A   Overcast
2:33 PM 48.2 °F - 42.8 °F 82% 29.73 in 10.0 mi SE 12.7 mph - N/A   Overcast
2:54 PM 48.2 °F - 42.8 °F 82% 29.72 in 10.0 mi SSE 11.5 mph - N/A   Overcast
3:13 PM 48.2 °F - 42.8 °F 82% 29.72 in 10.0 mi SSE 12.7 mph - N/A   Overcast
3:33 PM 48.2 °F - 42.8 °F 82% 29.72 in 10.0 mi SSE 11.5 mph - N/A   Overcast
4:13 PM 48.2 °F - 42.8 °F 82% 29.72 in 10.0 mi SSE 12.7 mph - N/A   Overcast
4:33 PM 48.2 °F - 42.8 °F 82% 29.72 in 10.0 mi SSE 13.8 mph - N/A   Mostly Cloudy
4:53 PM 48.2 °F - 42.8 °F 82% 29.73 in 10.0 mi SSE 10.4 mph - N/A   Overcast
5:13 PM 48.2 °F - 42.8 °F 82% 29.73 in 10.0 mi SSE 11.5 mph - N/A   Mostly Cloudy
5:34 PM 48.2 °F - 42.8 °F 82% 29.73 in 10.0 mi SE 15.0 mph - N/A   Mostly Cloudy
5:53 PM 48.2 °F - 42.8 °F 82% 29.73 in 10.0 mi SSE 10.4 mph - N/A   Scattered Clouds
6:13 PM 46.4 °F 41.5 °F 42.8 °F 87% 29.72 in 10.0 mi SE 10.4 mph - N/A   Clear
6:34 PM 46.4 °F 41.9 °F 42.8 °F 87% 29.72 in 10.0 mi SE 9.2 mph - N/A   Clear
6:53 PM 44.6 °F 39.2 °F 42.8 °F 93% 29.72 in 10.0 mi SE 10.4 mph - N/A   Clear
7:13 PM 44.6 °F 40.2 °F 42.8 °F 93% 29.72 in 10.0 mi SE 8.1 mph - N/A   Clear
7:34 PM 44.6 °F 40.2 °F 42.8 °F 93% 29.72 in 10.0 mi SE 8.1 mph - N/A   Clear
8:13 PM 44.6 °F 39.2 °F 42.8 °F 93% 29.73 in 10.0 mi SE 10.4 mph - N/A   Clear
8:33 PM 44.6 °F 39.7 °F 42.8 °F 93% 29.74 in 10.0 mi SE 9.2 mph - N/A   Clear
8:53 PM 44.6 °F 40.2 °F 42.8 °F 93% 29.74 in 10.0 mi SE 8.1 mph - N/A   Clear
9:13 PM 44.6 °F 39.7 °F 42.8 °F 93% 29.74 in 10.0 mi SE 9.2 mph - N/A   Clear
9:33 PM 44.6 °F 39.7 °F 42.8 °F 93% 29.74 in 10.0 mi SE 9.2 mph - N/A   Clear
9:53 PM 44.6 °F 39.2 °F 42.8 °F 93% 29.73 in 10.0 mi SE 10.4 mph - N/A   Clear
10:13 PM 44.6 °F 39.2 °F 42.8 °F 93% 29.74 in 10.0 mi SE 10.4 mph - N/A   Clear
10:33 PM 44.6 °F 38.8 °F 42.8 °F 93% 29.74 in 10.0 mi SE 11.5 mph - N/A   Clear
10:53 PM 44.6 °F 38.4 °F 42.8 °F 93% 29.74 in 10.0 mi SE 12.7 mph - N/A   Clear
11:33 PM 44.6 °F 39.2 °F 42.8 °F 93% 29.74 in 10.0 mi SE 10.4 mph - N/A   Clear
11:54 PM 44.6 °F 39.7 °F 42.8 °F 93% 29.74 in 10.0 mi SSE 9.2 mph - N/A   Clear